User: anonymous   Login
Location: Unspecified
(0.0000°N, 0.0000°E)
Time: 19:49:00
(UTC+00:00)
Language:

Envisat - Orbit

View from above orbital plane
View from above orbital plane
View from above satellite
View from above satellite

Ground track
Ground track

The orbit data is extracted from the following two-line orbital elements,

1 27386U 02009A   20099.57215657  .00000003  00000-0  14283-4 0  9990
2 27386  98.1391 110.2883 0001417  90.1998  18.7259 14.37976587948573
Epoch (UTC): 08 April 2020 13:43:54
Eccentricity: 0.0001417
inclination: 98.1391°
perigee height: 764 km
apogee height: 766 km
right ascension of ascending node: 110.2883°
argument of perigee: 90.1998°
revolutions per day: 14.37976587
mean anomaly at epoch: 18.7259°
orbit number at epoch: 94857

The dashed part of the orbit path shows where the satellite is in the earth's shadow,  

DLR